OK1VCF-8 Weather Reports


time (UTC)temp
C
wind
direction
speed
KPH
gust
KPH
rain 1hr
cm
rain 24hr
cm
rain mn
cm
humidity
%
barometer
mb
20260902031549 11 0 0.0 0.0 0.00 0.00 0.00 88 1022.4
20260902030831 11 0 0.0 0.0 0.00 0.00 0.00 88 1022.6
20260902030113 12 0 0.0 0.0 0.00 0.00 0.00 87 1022.4
20260902025354 12 0 0.0 0.0 0.00 0.00 0.00 86 1022.5
20260902024638 12 0 0.0 0.0 0.00 0.00 0.00 86 1022.5
20260902023921 12 0 0.0 0.0 0.00 0.00 0.00 86 1022.5
20260902023203 12 0 0.0 0.0 0.00 0.00 0.00 84 1022.4
20260902022446 13 0 0.0 0.0 0.00 0.00 0.00 84 1022.4
20260902021446 12 0 0.0 0.0 0.00 0.00 0.00 84 1022.6
20260902020727 13 0 0.0 0.0 0.00 0.00 0.00 84 1022.5
20260902020010 13 0 0.0 0.0 0.00 0.00 0.00 82 1022.4
20260902015251 13 0 0.0 0.0 0.00 0.00 0.00 84 1022.4
20260902013110 13 0 0.0 0.0 0.00 0.00 0.00 84 1022.4
20260902012351 12 0 0.0 0.0 0.00 0.00 0.00 85 1022.2
20260902011633 12 0 0.0 0.0 0.00 0.00 0.00 85 1022.2
20260902010914 12 0 0.0 0.0 0.00 0.00 0.00 84 1022.0
20260902010150 12 0 0.0 0.0 0.00 0.00 0.00 84 1022.0
20260902005422 12 0 0.0 0.0 0.00 0.00 0.00 84 1022.2
20260902004653 13 0 0.0 0.0 0.00 0.00 0.00 82 1022.2
20260902003928 13 0 0.0 0.0 0.00 0.00 0.00 81 1022.2
20260902003204 13 0 0.0 0.0 0.00 0.00 0.00 80 1022.2
20260902002149 13 0 0.0 0.0 0.00 0.00 0.00 80 1022.2
20260902001420 13 0 0.0 0.0 0.00 0.00 0.00 80 1022.1
20260902000651 14 0 0.0 0.0 0.00 0.00 0.00 80 1022.3
20260901235921 13 0 0.0 0.0 0.00 0.00 0.00 80 1022.2
20260901235139 13 0 0.0 0.0 0.00 0.00 0.00 80 1022.4
20260901234402 13 0 0.0 0.0 0.00 0.00 0.00 80 1022.2
20260901233626 13 0 0.0 0.0 0.00 0.00 0.00 80 1022.3
20260901232855 14 0 0.0 0.0 0.00 0.00 0.00 79 1022.2
20260901232134 14 0 0.0 0.0 0.00 0.00 0.00 78 1022.2
20260901231417 14 0 0.0 0.0 0.00 0.00 0.00 78 1022.2
20260901230702 14 0 0.0 0.0 0.00 0.00 0.00 78 1022.2
20260901225945 14 0 0.0 0.0 0.00 0.00 0.00 77 1022.2
20260901225229 15 0 0.0 0.0 0.00 0.00 0.00 76 1022.3
20260901224511 15 0 0.0 0.0 0.00 0.00 0.00 76 1022.2
20260901223754 15 0 0.0 0.0 0.00 0.00 0.00 76 1022.2
20260901222754 15 0 0.0 0.0 0.00 0.00 0.00 76 1022.4
20260901222035 15 0 0.0 0.0 0.00 0.00 0.00 74 1022.2
20260901221318 15 0 0.0 0.0 0.00 0.00 0.00 75 1022.4
20260901220601 15 0 0.0 0.0 0.00 0.00 0.00 76 1022.4
20260901215843 15 0 0.0 0.0 0.00 0.00 0.00 75 1022.3
20260901215126 15 0 0.0 0.0 0.00 0.00 0.00 74 1022.3
20260901214409 15 0 0.0 0.0 0.00 0.00 0.00 74 1022.3
20260901213653 15 0 0.0 0.0 0.00 0.00 0.00 74 1022.2
20260901212935 15 0 0.0 0.0 0.00 0.00 0.00 74 1022.2
20260901212218 15 0 0.0 0.0 0.00 0.00 0.00 74 1022.1
20260901211500 15 0 0.0 0.0 0.00 0.00 0.00 74 1022.0
20260901210745 15 0 0.0 0.0 0.00 0.00 0.00 74 1022.0
20260901210027 15 0 0.0 0.0 0.00 0.00 0.00 74 1022.0
20260901205310 15 0 0.0 0.0 0.00 0.00 0.00 74 1022.0
20260901204553 15 0 0.0 0.0 0.00 0.00 0.00 73 1022.0
20260901203553 16 0 0.0 0.0 0.00 0.00 0.00 72 1022.0
20260901202836 16 0 0.0 0.0 0.00 0.00 0.00 72 1022.0
20260901202118 16 0 0.0 0.0 0.00 0.00 0.00 72 1022.1
20260901201401 16 0 0.0 0.0 0.00 0.00 0.00 71 1022.0
20260901200645 16 0 0.0 0.0 0.00 0.00 0.00 70 1022.0
20260901195927 16 0 0.0 0.0 0.00 0.00 0.00 70 1022.0
20260901193747 17 0 0.0 0.0 0.00 0.00 0.00 65 1022.0
20260901193028 17 0 0.0 0.0 0.00 0.00 0.00 66 1021.8
20260901192311 17 0 0.0 0.0 0.00 0.00 0.00 65 1021.8
20260901191554 17 0 0.0 0.0 0.00 0.00 0.00 64 1021.8
20260901190838 17 0 0.0 0.0 0.00 0.00 0.00 64 1021.6
20260901190120 17 0 0.0 0.0 0.00 0.00 0.00 62 1021.6
20260901185402 17 0 0.0 0.0 0.00 0.00 0.00 63 1021.6
20260901184400 18 0 0.0 0.0 0.00 0.00 0.00 62 1021.5
20260901183642 18 0 0.0 0.0 0.00 0.00 0.00 62 1021.4
20260901182924 18 0 0.0 0.0 0.00 0.00 0.00 62 1021.4
20260901182206 18 0 0.0 0.0 0.00 0.00 0.00 60 1021.2
20260901181447 20 0 0.0 0.0 0.00 0.00 0.00 58 1021.2
20260901180730 20 0 0.0 0.0 0.00 0.00 0.00 56 1021.2
20260901180010 20 0 0.0 0.0 0.00 0.00 0.00 56 1021.0
20260901175252 20 0 0.0 0.0 0.00 0.00 0.00 56 1020.9
20260901174535 20 0 0.0 0.0 0.00 0.00 0.00 56 1021.0
20260901173818 20 0 0.0 0.0 0.00 0.00 0.00 56 1020.9
20260901173058 20 0 0.0 0.0 0.00 0.00 0.00 55 1020.9
20260901172340 20 0 0.0 0.0 0.00 0.00 0.00 54 1020.8
20260901171621 21 0 0.0 0.0 0.00 0.00 0.00 52 1021.0
20260901170904 21 0 0.0 0.0 0.00 0.00 0.00 50 1020.9
20260901170147 22 0 0.0 0.0 0.00 0.00 0.00 50 1020.9
20260901165144 22 0 0.0 0.0 0.00 0.00 0.00 48 1021.0
20260901164428 23 0 0.0 0.0 0.00 0.00 0.00 44 1021.0
20260901163710 27 0 0.0 0.0 0.00 0.00 0.00 36 1021.0
20260901162952 28 0 0.0 0.0 0.00 0.00 0.00 36 1020.9
20260901162235 30 0 0.0 0.0 0.00 0.00 0.00 33 1020.8
20260901161516 30 0 0.0 0.0 0.00 0.00 0.00 34 1020.8
20260901160758 30 0 0.0 0.0 0.00 0.00 0.00 34 1020.8
20260901160040 30 0 0.0 0.0 0.00 0.00 0.00 33 1020.8
20260901155320 30 0 0.0 0.0 0.00 0.00 0.00 33 1020.8
20260901154605 28 0 0.0 0.0 0.00 0.00 0.00 34 1021.0
20260901153849 30 0 0.0 0.0 0.00 0.00 0.00 32 1020.9
20260901153130 30 0 0.0 0.0 0.00 0.00 0.00 33 1021.0
20260901152409 28 0 0.0 0.0 0.00 0.00 0.00 34 1021.0
20260901151651 28 0 0.0 0.0 0.00 0.00 0.00 35 1021.0
20260901150932 25 0 0.0 0.0 0.00 0.00 0.00 43 1021.1
20260901145929 24 0 0.0 0.0 0.00 0.00 0.00 43 1021.2
20260901145213 23 0 0.0 0.0 0.00 0.00 0.00 44 1021.2
20260901144455 24 0 0.0 0.0 0.00 0.00 0.00 42 1021.3
20260901143735 25 0 0.0 0.0 0.00 0.00 0.00 42 1021.4
20260901143017 24 0 0.0 0.0 0.00 0.00 0.00 42 1021.2
20260901142258 25 0 0.0 0.0 0.00 0.00 0.00 42 1021.4
20260901141539 24 0 0.0 0.0 0.00 0.00 0.00 44 1021.4
20260901140821 24 0 0.0 0.0 0.00 0.00 0.00 44 1021.3
20260901140104 24 0 0.0 0.0 0.00 0.00 0.00 46 1021.4
20260901135344 24 0 0.0 0.0 0.00 0.00 0.00 46 1021.6
20260901134626 23 0 0.0 0.0 0.00 0.00 0.00 48 1021.6
20260901133909 23 0 0.0 0.0 0.00 0.00 0.00 47 1021.6
20260901133150 22 0 0.0 0.0 0.00 0.00 0.00 48 1021.7
20260901132432 23 0 0.0 0.0 0.00 0.00 0.00 48 1021.7
20260901131714 23 0 0.0 0.0 0.00 0.00 0.00 48 1021.8
20260901130707 23 0 0.0 0.0 0.00 0.00 0.00 48 1021.9
20260901125938 22 0 0.0 0.0 0.00 0.00 0.00 49 1021.8
20260901125208 22 0 0.0 0.0 0.00 0.00 0.00 48 1021.8
20260901124439 23 0 0.0 0.0 0.00 0.00 0.00 46 1021.9
20260901123712 24 0 0.0 0.0 0.00 0.00 0.00 44 1021.8
20260901122941 24 0 0.0 0.0 0.00 0.00 0.00 44 1022.0
20260901122212 23 0 0.0 0.0 0.00 0.00 0.00 44 1022.0
20260901121434 24 0 0.0 0.0 0.00 0.00 0.00 46 1022.0
20260901120706 24 0 0.0 0.0 0.00 0.00 0.00 45 1022.0
20260901115931 24 0 0.0 0.0 0.00 0.00 0.00 46 1022.1
20260901115155 25 0 0.0 0.0 0.00 0.00 0.00 44 1022.1
20260901114417 25 0 0.0 0.0 0.00 0.00 0.00 44 1022.0
20260901113642 24 0 0.0 0.0 0.00 0.00 0.00 46 1022.2
20260901112913 23 0 0.0 0.0 0.00 0.00 0.00 46 1022.0
20260901112146 24 0 0.0 0.0 0.00 0.00 0.00 48 1022.2
20260901111143 23 0 0.0 0.0 0.00 0.00 0.00 47 1022.2
20260901110426 23 0 0.0 0.0 0.00 0.00 0.00 50 1022.2
20260901105707 23 0 0.0 0.0 0.00 0.00 0.00 50 1022.1
20260901104950 23 0 0.0 0.0 0.00 0.00 0.00 49 1022.0
20260901104232 23 0 0.0 0.0 0.00 0.00 0.00 50 1022.2
20260901103514 22 0 0.0 0.0 0.00 0.00 0.00 51 1022.2
20260901102756 23 0 0.0 0.0 0.00 0.00 0.00 50 1022.2
20260901102037 22 0 0.0 0.0 0.00 0.00 0.00 52 1022.1
20260901101318 22 0 0.0 0.0 0.00 0.00 0.00 50 1022.2
20260901100600 22 0 0.0 0.0 0.00 0.00 0.00 53 1022.1
20260901095840 22 0 0.0 0.0 0.00 0.00 0.00 50 1022.0
20260901095123 23 0 0.0 0.0 0.00 0.00 0.00 52 1022.1
20260901094406 23 0 0.0 0.0 0.00 0.00 0.00 51 1022.0
20260901093649 22 0 0.0 0.0 0.00 0.00 0.00 55 1021.8
20260901092931 22 0 0.0 0.0 0.00 0.00 0.00 55 1022.0
20260901091929 22 0 0.0 0.0 0.00 0.00 0.00 54 1022.0
20260901091212 22 0 0.0 0.0 0.00 0.00 0.00 56 1022.2
20260901090453 22 0 0.0 0.0 0.00 0.00 0.00 56 1022.0
20260901085734 21 0 0.0 0.0 0.00 0.00 0.00 56 1022.0
20260901085017 21 0 0.0 0.0 0.00 0.00 0.00 58 1022.0
20260901084259 21 0 0.0 0.0 0.00 0.00 0.00 59 1021.8
20260901083540 21 0 0.0 0.0 0.00 0.00 0.00 56 1021.7
20260901082822 21 0 0.0 0.0 0.00 0.00 0.00 58 1021.8
20260901082104 21 0 0.0 0.0 0.00 0.00 0.00 60 1021.8
20260901081344 20 0 0.0 0.0 0.00 0.00 0.00 59 1021.6
20260901080627 20 0 0.0 0.0 0.00 0.00 0.00 58 1021.6
20260901075908 20 0 0.0 0.0 0.00 0.00 0.00 59 1021.4
20260901075148 20 0 0.0 0.0 0.00 0.00 0.00 62 1021.4
20260901074431 20 0 0.0 0.0 0.00 0.00 0.00 62 1021.4
20260901073714 19 0 0.0 0.0 0.00 0.00 0.00 62 1021.4
20260901072712 18 0 0.0 0.0 0.00 0.00 0.00 65 1021.2
20260901071954 18 0 0.0 0.0 0.00 0.00 0.00 67 1021.2
20260901071236 18 0 0.0 0.0 0.00 0.00 0.00 70 1021.4
20260901070513 18 0 0.0 0.0 0.00 0.00 0.00 71 1021.3
20260901065748 17 0 0.0 0.0 0.00 0.00 0.00 72 1021.4
20260901065027 17 0 0.0 0.0 0.00 0.00 0.00 74 1021.2
20260901064305 17 0 0.0 0.0 0.00 0.00 0.00 75 1021.3
20260901063542 17 0 0.0 0.0 0.00 0.00 0.00 76 1021.2
20260901062816 17 0 0.0 0.0 0.00 0.00 0.00 76 1021.4
20260901062049 16 0 0.0 0.0 0.00 0.00 0.00 78 1021.3
20260901061324 16 0 0.0 0.0 0.00 0.00 0.00 78 1021.2
20260901060602 16 0 0.0 0.0 0.00 0.00 0.00 80 1021.2
20260901055840 16 0 0.0 0.0 0.00 0.00 0.00 80 1021.0
20260901055117 15 0 0.0 0.0 0.00 0.00 0.00 81 1021.2
20260901054358 15 0 0.0 0.0 0.00 0.00 0.00 82 1021.0
20260901053355 15 0 0.0 0.0 0.00 0.00 0.00 82 1020.8
20260901052635 15 0 0.0 0.0 0.00 0.00 0.00 84 1021.0
20260901051916 15 0 0.0 0.0 0.00 0.00 0.00 84 1020.8
20260901051159 15 0 0.0 0.0 0.00 0.00 0.00 84 1020.8
20260901050440 14 0 0.0 0.0 0.00 0.00 0.00 84 1021.0
20260901045720 14 0 0.0 0.0 0.00 0.00 0.00 85 1020.8
20260901045001 14 0 0.0 0.0 0.00 0.00 0.00 84 1020.6
20260901044244 14 0 0.0 0.0 0.00 0.00 0.00 84 1020.6
20260901043527 14 0 0.0 0.0 0.00 0.00 0.00 84 1020.4
20260901042809 14 0 0.0 0.0 0.00 0.00 0.00 85 1020.4
20260901042050 13 0 0.0 0.0 0.00 0.00 0.00 86 1020.4
20260901041331 14 0 0.0 0.0 0.00 0.00 0.00 84 1020.2
20260901040615 14 0 0.0 0.0 0.00 0.00 0.00 83 1020.3
20260901035855 15 0 0.0 0.0 0.00 0.00 0.00 82 1020.2
20260901035136 15 0 0.0 0.0 0.00 0.00 0.00 82 1020.3
20260901034134 15 0 0.0 0.0 0.00 0.00 0.00 82 1020.1
20260901033417 15 0 0.0 0.0 0.00 0.00 0.00 81 1020.2
20260901032659 15 0 0.0 0.0 0.00 0.00 0.00 80 1020.2